Weather History for Baker, MT

Change the Weather History Date:

Friday, April 12, 2013

  Actual Average Record
Temperature  
Mean Temperature 32 °F -  
Max Temperature 39 °F 45 °F 84 °F (2003)
Min Temperature 24 °F 34 °F 19 °F (2004)
Degree Days  
Heating Degree Days 34    
Moisture  
Dew Point 25 °F    
Average Humidity 81    
Maximum Humidity 93    
Minimum Humidity 65    
Precipitation  
Precipitation 0.00 in - - ()
Sea Level Pressure  
Sea Level Pressure 29.94 in    
Wind  
Wind Speed 6 mph (NW)    
Max Wind Speed 20 mph    
Max Gust Speed -    
Visibility 8 miles    
Events Fog , Snow    
Averages and records for this station are not official NWS values.
T = Trace of Precipitation, MM = Missing Value Source: NWS Daily Summary

Daily Weather History Graph

Daily Weather History Graph

Search for Another Location

Airport:

Trip Planner

Search our weather history database for the weather conditions in past years. The results will help you decide how hot, cold, wet, or windy it might be!

Date:

Astronomy

Apr. 12, 2013 Rise Set
Actual Time 6:15 AM MDT 7:41 PM MDT
Civil Twilight 5:44 AM MDT 8:12 PM MDT
Nautical Twilight 5:06 AM MDT 8:50 PM MDT
Astronomical Twilight 4:25 AM MDT 9:31 PM MDT
Moon 7:19 AM MDT (4/12) 10:22 PM MDT (4/12)
Length of Visible Light 14h 28m
Length of Day
13h 25m
Waxing Crescent, 5% of the Moon is Illuminated
Apr 12
Waxing Crescent
Apr 18
First Quarter
Apr 25
Full
May 2
Last Quarter
May 9
New

Hourly Weather History & Observations

Time (MDT) Temp. Windchill Dew Point Humidity Pressure Visibility Wind Dir Wind Speed Gust Speed Precip Events Conditions
12:51 AM 30.0 °F - 24.1 °F 79% 29.94 in 10.0 mi Calm Calm - N/A   Overcast
1:41 AM 28.4 °F - 21.2 °F 74% 29.86 in 10.0 mi Calm Calm - N/A   Scattered Clouds
1:51 AM 28.9 °F - 21.9 °F 75% 29.94 in 10.0 mi Calm Calm - N/A   Partly Cloudy
2:51 AM 27.0 °F - 21.9 °F 81% 29.93 in 10.0 mi Calm Calm - N/A   Scattered Clouds
3:37 AM 24.8 °F - 21.2 °F 86% 29.86 in 10.0 mi Calm Calm - N/A   Mostly Cloudy
3:51 AM 27.0 °F - 21.9 °F 81% 29.94 in 10.0 mi Calm Calm - N/A   Overcast
4:51 AM 28.0 °F 20.0 °F 23.0 °F 81% 29.94 in 10.0 mi WNW 8.1 mph - N/A   Mostly Cloudy
5:03 AM 26.6 °F 18.2 °F 21.2 °F 80% 29.87 in 10.0 mi WNW 8.1 mph - N/A   Scattered Clouds
5:13 AM 26.6 °F 19.1 °F 21.2 °F 80% 29.87 in 10.0 mi WNW 6.9 mph - N/A   Mostly Cloudy
5:40 AM 26.6 °F 18.2 °F 21.2 °F 80% 29.86 in 10.0 mi West 8.1 mph - N/A   Mostly Cloudy
5:49 AM 26.6 °F 20.0 °F 23.0 °F 86% 29.86 in 9.0 mi WNW 5.8 mph - N/A   Overcast
5:51 AM 27.0 °F 20.5 °F 23.0 °F 85% 29.94 in 9.0 mi WNW 5.8 mph - N/A   Overcast
6:05 AM 26.6 °F 18.2 °F 23.0 °F 86% 29.86 in 1.8 mi West 8.1 mph - N/A   Overcast
6:14 AM 26.6 °F 18.2 °F 23.0 °F 86% 29.86 in 0.5 mi West 8.1 mph - N/A Fog Light Freezing Fog
6:51 AM 27.0 °F 18.7 °F 24.1 °F 89% 29.94 in 0.2 mi West 8.1 mph - N/A Fog Light Freezing Fog
7:51 AM 28.9 °F 23.9 °F 26.1 °F 89% 29.94 in 0.2 mi NW 4.6 mph - N/A Fog Light Freezing Fog
9:08 AM 30.2 °F 22.6 °F 28.4 °F 93% 29.90 in 3.0 mi NW 8.1 mph - N/A   Overcast
9:32 AM 30.2 °F 23.4 °F 28.4 °F 93% 29.91 in 10.0 mi NW 6.9 mph - N/A   Overcast
9:51 AM 32.0 °F 25.6 °F 28.9 °F 88% 29.99 in 8.0 mi NNW 6.9 mph - N/A   Overcast
10:25 AM 30.2 °F 24.3 °F 28.4 °F 93% 29.92 in 9.0 mi NNW 5.8 mph - N/A   Overcast
10:51 AM 32.0 °F 23.0 °F 28.9 °F 88% 30.00 in 10.0 mi North 11.5 mph - N/A   Overcast
11:07 AM 33.8 °F 25.8 °F 28.4 °F 81% 29.93 in 10.0 mi NNW 10.4 mph - N/A   Overcast
11:51 AM 34.0 °F 24.2 °F 28.0 °F 79% 30.01 in 10.0 mi NNW 15.0 mph - N/A   Overcast
12:51 PM 34.0 °F 22.7 °F 28.0 °F 79% 30.02 in 10.0 mi NNW 19.6 mph - N/A   Overcast
1:51 PM 34.0 °F 24.6 °F 27.0 °F 75% 30.02 in 10.0 mi NW 13.8 mph - N/A   Overcast
2:16 PM 33.8 °F 23.2 °F 28.4 °F 81% 29.95 in 8.0 mi NW 17.3 mph - 0.00 in Snow Light Snow
2:51 PM 36.0 °F 26.7 °F 28.9 °F 76% 30.02 in 10.0 mi NW 15.0 mph - 0.00 in   Overcast
3:22 PM 35.6 °F 26.2 °F 28.4 °F 75% 29.95 in 10.0 mi NW 15.0 mph - N/A   Overcast
3:32 PM 35.6 °F 25.9 °F 26.6 °F 70% 29.94 in 10.0 mi NNW 16.1 mph - N/A   Overcast
4:51 PM 37.9 °F 29.2 °F 28.0 °F 68% 30.00 in 10.0 mi NW 15.0 mph - N/A   Mostly Cloudy
5:51 PM 37.9 °F 30.9 °F 28.0 °F 68% 30.00 in 10.0 mi NW 10.4 mph - N/A   Mostly Cloudy
6:03 PM 39.2 °F 31.2 °F 28.4 °F 65% 29.93 in 10.0 mi WNW 13.8 mph - N/A   Mostly Cloudy
6:51 PM 37.0 °F 31.0 °F 28.0 °F 70% 30.00 in 10.0 mi West 8.1 mph - N/A   Overcast
8:51 PM 30.9 °F - 27.0 °F 85% 30.00 in 8.0 mi Calm Calm - N/A   Clear
9:36 PM 28.4 °F 23.3 °F 24.8 °F 86% 29.91 in 5.0 mi East 4.6 mph - N/A   Mostly Cloudy
9:51 PM 28.9 °F 25.2 °F 26.1 °F 89% 29.99 in 6.0 mi SSE 3.5 mph - N/A   Overcast
10:51 PM 27.0 °F 18.7 °F 23.0 °F 85% 29.97 in 10.0 mi SE 8.1 mph - N/A   Mostly Cloudy
10:57 PM 26.6 °F 20.0 °F 23.0 °F 86% 29.89 in 10.0 mi SE 5.8 mph - N/A   Scattered Clouds
11:51 PM 24.1 °F 17.0 °F 19.9 °F 84% 29.96 in 9.0 mi ESE 5.8 mph - N/A   Clear